Time,TemperatureF,DewpointF,PressureIn,WindDirection,WindDirectionDegrees,WindSpeedMPH,WindSpeedGustMPH,Humidity,HourlyPrecipIn,Conditions,Clouds,dailyrainin,SoftwareType,DateUTC
2013-02-15 00:00:00,3.0,-31.9,29.03,WSW,258,0.0,0.0,17,0.00,,,0.00,VWS V13.01,2013-02-15 06:00:00,
2013-02-15 00:05:00,3.0,-31.9,29.03,WSW,258,0.0,0.0,17,0.00,,,0.00,VWS V13.01,2013-02-15 06:05:00,
2013-02-15 00:10:00,2.3,-32.5,29.03,WSW,258,0.0,0.0,17,0.00,,,0.00,VWS V13.01,2013-02-15 06:10:00,
2013-02-15 00:15:00,1.8,-33.0,29.03,WSW,258,0.0,0.0,17,0.00,,,0.00,VWS V13.01,2013-02-15 06:15:00,
2013-02-15 00:20:00,1.8,-33.0,29.03,WSW,258,0.0,0.0,17,0.00,,,0.00,VWS V13.01,2013-02-15 06:20:00,
2013-02-15 00:25:00,2.5,-32.4,29.03,WSW,258,0.0,0.0,17,0.00,,,0.00,VWS V13.01,2013-02-15 06:25:00,
2013-02-15 00:30:00,2.5,-32.4,29.03,WSW,256,0.0,0.0,17,0.00,,,0.00,VWS V13.01,2013-02-15 06:30:00,
2013-02-15 00:35:00,3.7,-31.3,29.03,WNW,289,0.0,0.0,17,0.00,,,0.00,VWS V13.01,2013-02-15 06:35:00,
2013-02-15 00:40:00,4.8,-30.4,29.03,West,277,0.0,0.0,17,0.00,,,0.00,VWS V13.01,2013-02-15 06:40:00,
2013-02-15 00:45:00,5.0,-30.3,29.03,WSW,239,0.0,0.0,17,0.00,,,0.00,VWS V13.01,2013-02-15 06:45:00,
2013-02-15 00:50:00,5.4,-30.0,29.03,SW,223,2.2,2.2,17,0.00,,,0.00,VWS V13.01,2013-02-15 06:50:00,
2013-02-15 00:55:00,5.4,-30.0,29.03,WSW,256,0.0,0.0,17,0.00,,,0.00,VWS V13.01,2013-02-15 06:55:00,
2013-02-15 01:00:00,5.4,-30.0,29.03,WSW,257,0.0,0.0,17,0.00,,,0.00,VWS V13.01,2013-02-15 07:00:00,
2013-02-15 01:05:00,5.5,-29.8,29.03,WSW,252,0.0,2.2,17,0.00,,,0.00,VWS V13.01,2013-02-15 07:05:00,
2013-02-15 01:10:00,6.1,-29.4,29.03,WNW,293,4.0,5.8,17,0.00,,,0.00,VWS V13.01,2013-02-15 07:10:00,
2013-02-15 01:15:00,6.3,-29.2,29.03,WSW,245,0.0,0.0,17,0.00,,,0.00,VWS V13.01,2013-02-15 07:15:00,
2013-02-15 01:20:00,6.8,-28.8,29.03,WNW,303,3.6,4.0,17,0.00,,,0.00,VWS V13.01,2013-02-15 07:20:00,
2013-02-15 01:25:00,6.8,-28.8,29.03,West,261,0.0,0.0,17,0.00,,,0.00,VWS V13.01,2013-02-15 07:25:00,
2013-02-15 01:30:00,6.8,-28.8,29.03,WSW,258,0.0,0.0,17,0.00,,,0.00,VWS V13.01,2013-02-15 07:30:00,
2013-02-15 01:35:00,7.0,-28.6,29.03,NW,318,0.0,0.0,17,0.00,,,0.00,VWS V13.01,2013-02-15 07:35:00,
2013-02-15 01:40:00,6.4,-29.1,29.03,NNW,336,0.0,0.0,17,0.00,,,0.00,VWS V13.01,2013-02-15 07:40:00,
2013-02-15 01:45:00,6.4,-29.1,29.03,WSW,245,0.0,0.0,17,0.00,,,0.00,VWS V13.01,2013-02-15 07:45:00,
2013-02-15 01:51:00,6.1,-29.4,29.03,West,277,4.5,4.5,17,0.00,,,0.00,VWS V13.01,2013-02-15 07:51:00,
2013-02-15 01:56:00,6.3,-29.2,29.03,WSW,251,0.0,3.6,17,0.00,,,0.00,VWS V13.01,2013-02-15 07:56:00,
2013-02-15 02:01:00,6.3,-29.2,29.03,WNW,296,2.2,2.2,17,0.00,,,0.00,VWS V13.01,2013-02-15 08:01:00,
2013-02-15 02:06:00,6.4,-29.1,29.03,West,259,0.0,0.0,17,0.00,,,0.00,VWS V13.01,2013-02-15 08:06:00,
2013-02-15 02:11:00,6.6,-28.9,29.03,NNW,331,2.7,3.1,17,0.00,,,0.00,VWS V13.01,2013-02-15 08:11:00,
2013-02-15 02:16:00,6.8,-28.8,29.03,WNW,300,0.0,0.0,17,0.00,,,0.00,VWS V13.01,2013-02-15 08:16:00,
2013-02-15 02:21:00,6.6,-28.9,29.03,NW,325,0.0,0.0,17,0.00,,,0.00,VWS V13.01,2013-02-15 08:21:00,
2013-02-15 02:26:00,6.6,-28.9,29.03,West,269,0.0,0.0,17,0.00,,,0.00,VWS V13.01,2013-02-15 08:26:00,
2013-02-15 02:31:00,6.3,-29.2,29.03,WNW,294,0.0,0.0,17,0.00,,,0.00,VWS V13.01,2013-02-15 08:31:00,
2013-02-15 02:36:00,6.1,-29.4,29.03,NW,306,5.4,5.4,17,0.00,,,0.00,VWS V13.01,2013-02-15 08:36:00,
2013-02-15 02:41:00,5.9,-29.5,29.03,West,272,2.7,2.7,17,0.00,,,0.00,VWS V13.01,2013-02-15 08:41:00,
2013-02-15 02:46:00,5.5,-29.8,29.03,NW,305,2.7,2.7,17,0.00,,,0.00,VWS V13.01,2013-02-15 08:46:00,
2013-02-15 02:51:00,5.0,-30.3,29.03,WNW,300,0.0,0.0,17,0.00,,,0.00,VWS V13.01,2013-02-15 08:51:00,
2013-02-15 02:56:00,4.1,-31.0,29.03,WNW,288,0.0,0.0,17,0.00,,,0.00,VWS V13.01,2013-02-15 08:56:00,
2013-02-15 03:01:00,4.1,-31.0,29.03,WNW,297,0.0,0.0,17,0.00,,,0.00,VWS V13.01,2013-02-15 09:01:00,
2013-02-15 03:06:00,4.1,-31.0,29.03,WNW,293,0.0,0.0,17,0.00,,,0.00,VWS V13.01,2013-02-15 09:06:00,
2013-02-15 03:11:00,4.5,-30.7,29.03,WNW,293,2.7,3.1,17,0.00,,,0.00,VWS V13.01,2013-02-15 09:11:00,
2013-02-15 03:16:00,5.0,-30.3,29.03,WNW,293,2.7,2.7,17,0.00,,,0.00,VWS V13.01,2013-02-15 09:16:00,
2013-02-15 03:21:00,5.2,-30.1,29.03,West,281,0.0,0.0,17,0.00,,,0.00,VWS V13.01,2013-02-15 09:21:00,
2013-02-15 03:26:00,5.4,-30.0,29.03,WSW,249,0.0,3.6,17,0.00,,,0.00,VWS V13.01,2013-02-15 09:26:00,
2013-02-15 03:31:00,5.0,-30.3,29.03,NW,309,3.1,3.1,17,0.00,,,0.00,VWS V13.01,2013-02-15 09:31:00,
2013-02-15 03:36:00,4.6,-30.6,29.03,West,277,0.0,0.0,17,0.00,,,0.00,VWS V13.01,2013-02-15 09:36:00,
2013-02-15 03:41:00,3.6,-31.5,29.03,WNW,287,0.0,0.0,17,0.00,,,0.00,VWS V13.01,2013-02-15 09:41:00,
2013-02-15 03:46:00,2.7,-32.2,29.03,West,263,0.0,0.0,17,0.00,,,0.00,VWS V13.01,2013-02-15 09:46:00,
2013-02-15 03:51:00,1.9,-32.8,29.03,NW,312,0.0,0.0,17,0.00,,,0.00,VWS V13.01,2013-02-15 09:51:00,
2013-02-15 03:56:00,1.0,-33.6,29.06,NW,305,0.0,0.0,17,0.00,,,0.00,VWS V13.01,2013-02-15 09:56:00,
2013-02-15 04:01:00,0.5,-34.0,29.06,WNW,300,0.0,0.0,17,0.00,,,0.00,VWS V13.01,2013-02-15 10:01:00,
2013-02-15 04:06:00,0.1,-34.3,29.06,West,278,0.0,0.0,17,0.00,,,0.00,VWS V13.01,2013-02-15 10:06:00,
2013-02-15 04:11:00,-0.9,-35.2,29.06,West,278,0.0,0.0,17,0.00,,,0.00,VWS V13.01,2013-02-15 10:11:00,
2013-02-15 04:16:00,-1.1,-35.4,29.06,West,261,0.0,0.0,17,0.00,,,0.00,VWS V13.01,2013-02-15 10:16:00,
2013-02-15 04:21:00,-1.1,-35.4,29.06,NW,321,0.0,0.0,17,0.00,,,0.00,VWS V13.01,2013-02-15 10:21:00,
2013-02-15 04:26:00,-0.9,-35.2,29.06,NW,320,0.0,0.0,17,0.00,,,0.00,VWS V13.01,2013-02-15 10:26:00,
2013-02-15 04:31:00,-0.2,-34.6,29.06,NW,308,0.0,0.0,17,0.00,,,0.00,VWS V13.01,2013-02-15 10:31:00,
2013-02-15 04:36:00,0.0,-34.5,29.06,NW,308,0.0,0.0,17,0.00,,,0.00,VWS V13.01,2013-02-15 10:36:00,
2013-02-15 04:41:00,-0.6,-34.9,29.06,NW,307,0.0,0.0,17,0.00,,,0.00,VWS V13.01,2013-02-15 10:41:00,
2013-02-15 04:46:00,-0.2,-34.6,29.06,WNW,289,0.0,0.0,17,0.00,,,0.00,VWS V13.01,2013-02-15 10:46:00,
2013-02-15 04:51:00,-0.6,-34.9,29.06,WSW,248,0.0,0.0,17,0.00,,,0.00,VWS V13.01,2013-02-15 10:51:00,
2013-02-15 04:56:00,-0.6,-34.9,29.06,West,274,0.0,0.0,17,0.00,,,0.00,VWS V13.01,2013-02-15 10:56:00,
2013-02-15 05:01:00,-0.6,-34.9,29.06,WNW,287,0.0,0.0,17,0.00,,,0.00,VWS V13.01,2013-02-15 11:01:00,
2013-02-15 05:06:00,-0.6,-34.9,29.06,WNW,290,0.0,0.0,17,0.00,,,0.00,VWS V13.01,2013-02-15 11:06:00,
2013-02-15 05:11:00,-0.6,-34.9,29.06,West,277,0.0,0.0,17,0.00,,,0.00,VWS V13.01,2013-02-15 11:11:00,
2013-02-15 05:16:00,-0.6,-34.9,29.06,WNW,299,0.0,0.0,17,0.00,,,0.00,VWS V13.01,2013-02-15 11:16:00,
2013-02-15 05:21:00,-0.6,-34.9,29.06,NW,306,0.0,0.0,17,0.00,,,0.00,VWS V13.01,2013-02-15 11:21:00,
2013-02-15 05:26:00,-0.6,-34.9,29.06,NW,324,0.0,0.0,17,0.00,,,0.00,VWS V13.01,2013-02-15 11:26:00,
2013-02-15 05:31:00,-0.8,-35.1,29.06,NW,304,0.0,0.0,17,0.00,,,0.00,VWS V13.01,2013-02-15 11:31:00,
2013-02-15 05:36:00,-0.6,-34.9,29.06,West,279,0.0,0.0,17,0.00,,,0.00,VWS V13.01,2013-02-15 11:36:00,
2013-02-15 05:41:00,0.0,-34.5,29.09,NW,326,0.0,0.0,17,0.00,,,0.00,VWS V13.01,2013-02-15 11:41:00,
2013-02-15 05:46:00,0.3,-34.2,29.09,West,280,0.0,2.7,17,0.00,,,0.00,VWS V13.01,2013-02-15 11:46:00,
2013-02-15 05:51:00,0.0,-34.5,29.09,WNW,297,0.0,0.0,17,0.00,,,0.00,VWS V13.01,2013-02-15 11:51:00,
2013-02-15 05:56:00,-0.2,-34.6,29.09,WNW,297,0.0,0.0,17,0.00,,,0.00,VWS V13.01,2013-02-15 11:56:00,
2013-02-15 06:01:00,0.0,-34.5,29.09,West,280,0.0,0.0,17,0.00,,,0.00,VWS V13.01,2013-02-15 12:01:00,
2013-02-15 06:06:00,-0.6,-34.9,29.09,West,280,0.0,0.0,17,0.00,,,0.00,VWS V13.01,2013-02-15 12:06:00,
2013-02-15 06:11:00,-0.8,-35.1,29.09,WNW,285,0.0,0.0,17,0.00,,,0.00,VWS V13.01,2013-02-15 12:11:00,
2013-02-15 06:16:00,-0.9,-35.2,29.09,WNW,285,0.0,0.0,17,0.00,,,0.00,VWS V13.01,2013-02-15 12:16:00,
2013-02-15 06:21:00,-0.9,-35.2,29.09,West,272,0.0,0.0,17,0.00,,,0.00,VWS V13.01,2013-02-15 12:21:00,
2013-02-15 06:26:00,-1.3,-35.5,29.09,WSW,258,0.0,0.0,17,0.00,,,0.00,VWS V13.01,2013-02-15 12:26:00,
2013-02-15 06:31:00,-1.1,-35.4,29.09,WNW,288,0.0,0.0,17,0.00,,,0.00,VWS V13.01,2013-02-15 12:31:00,
2013-02-15 06:36:00,-0.6,-34.9,29.09,NW,314,0.0,0.0,17,0.00,,,0.00,VWS V13.01,2013-02-15 12:36:00,
2013-02-15 06:41:00,-0.4,-34.8,29.09,WNW,284,0.0,0.0,17,0.00,,,0.00,VWS V13.01,2013-02-15 12:41:00,
2013-02-15 06:46:00,-0.4,-34.8,29.09,West,274,0.0,0.0,17,0.00,,,0.00,VWS V13.01,2013-02-15 12:46:00,
2013-02-15 06:51:00,-0.9,-35.2,29.09,NNW,328,0.0,0.0,17,0.00,,,0.00,VWS V13.01,2013-02-15 12:51:00,
2013-02-15 06:56:00,-1.8,-36.0,29.09,NNW,328,0.0,0.0,17,0.00,,,0.00,VWS V13.01,2013-02-15 12:56:00,
2013-02-15 07:01:00,-2.2,-36.3,29.09,NW,320,0.0,0.0,17,0.00,,,0.00,VWS V13.01,2013-02-15 13:01:00,
2013-02-15 07:06:00,-2.6,-36.6,29.09,NW,320,0.0,0.0,17,0.00,,,0.00,VWS V13.01,2013-02-15 13:06:00,
2013-02-15 07:11:00,-2.6,-36.6,29.09,NW,317,0.0,0.0,17,0.00,,,0.00,VWS V13.01,2013-02-15 13:11:00,
2013-02-15 07:16:00,-2.7,-36.7,29.09,NW,317,0.0,0.0,17,0.00,,,0.00,VWS V13.01,2013-02-15 13:16:00,
2013-02-15 07:21:00,-2.4,-36.4,29.09,WNW,288,0.0,0.0,17,0.00,,,0.00,VWS V13.01,2013-02-15 13:21:00,
2013-02-15 07:26:00,-2.0,-36.1,29.12,WNW,288,0.0,0.0,17,0.00,,,0.00,VWS V13.01,2013-02-15 13:26:00,
2013-02-15 07:31:00,-0.9,-35.2,29.12,NW,307,0.0,0.0,17,0.00,,,0.00,VWS V13.01,2013-02-15 13:31:00,
2013-02-15 07:36:00,-0.6,-34.9,29.12,WNW,290,0.0,0.0,17,0.00,,,0.00,VWS V13.01,2013-02-15 13:36:00,
2013-02-15 07:41:00,0.7,-33.9,29.12,West,279,0.0,2.2,17,0.00,,,0.00,VWS V13.01,2013-02-15 13:41:00,
2013-02-15 07:46:00,0.9,-33.7,29.12,West,266,0.0,0.0,17,0.00,,,0.00,VWS V13.01,2013-02-15 13:46:00,
2013-02-15 07:51:00,1.4,-33.3,29.12,WNW,289,0.0,0.0,17,0.00,,,0.00,VWS V13.01,2013-02-15 13:51:00,
2013-02-15 07:56:00,1.8,-33.0,29.12,WNW,285,0.0,0.0,17,0.00,,,0.00,VWS V13.01,2013-02-15 13:56:00,
2013-02-15 08:01:00,3.2,-31.8,29.12,WNW,299,2.2,2.2,17,0.00,,,0.00,VWS V13.01,2013-02-15 14:01:00,
2013-02-15 08:06:00,5.0,-30.3,29.12,West,270,0.0,0.0,17,0.00,,,0.00,VWS V13.01,2013-02-15 14:06:00,
2013-02-15 08:11:00,6.4,-29.1,29.12,West,267,0.0,0.0,17,0.00,,,0.00,VWS V13.01,2013-02-15 14:11:00,
2013-02-15 08:16:00,8.1,-27.7,29.12,WNW,285,0.0,0.0,17,0.00,,,0.00,VWS V13.01,2013-02-15 14:16:00,
2013-02-15 08:21:00,8.2,-27.6,29.12,WNW,295,0.0,2.2,17,0.00,,,0.00,VWS V13.01,2013-02-15 14:21:00,
2013-02-15 08:26:00,7.5,-28.2,29.12,NW,321,0.0,0.0,17,0.00,,,0.00,VWS V13.01,2013-02-15 14:26:00,
2013-02-15 08:31:00,6.3,-29.2,29.12,NW,312,3.6,4.0,17,0.00,,,0.00,VWS V13.01,2013-02-15 14:31:00,
2013-02-15 08:36:00,6.4,-29.1,29.12,NW,312,0.0,0.0,17,0.00,,,0.00,VWS V13.01,2013-02-15 14:36:00,
2013-02-15 08:41:00,5.9,-29.5,29.12,West,273,2.2,3.6,17,0.00,,,0.00,VWS V13.01,2013-02-15 14:41:00,
2013-02-15 08:46:00,7.2,-28.5,29.12,NNW,329,2.2,3.6,17,0.00,,,0.00,VWS V13.01,2013-02-15 14:46:00,
2013-02-15 08:51:00,8.6,-27.3,29.12,SW,235,2.7,2.7,17,0.00,,,0.00,VWS V13.01,2013-02-15 14:51:00,
2013-02-15 08:56:00,10.8,-25.5,29.12,NW,309,0.0,0.0,17,0.00,,,0.00,VWS V13.01,2013-02-15 14:56:00,
2013-02-15 09:01:00,12.0,-24.4,29.12,WSW,252,0.0,0.0,17,0.00,,,0.00,VWS V13.01,2013-02-15 15:01:00,
2013-02-15 09:06:00,11.8,-24.6,29.12,WNW,299,2.7,2.7,17,0.00,,,0.00,VWS V13.01,2013-02-15 15:06:00,
2013-02-15 09:11:00,11.7,-24.7,29.15,NW,311,2.7,2.7,17,0.00,,,0.00,VWS V13.01,2013-02-15 15:11:00,
2013-02-15 09:16:00,9.7,-26.4,29.15,NW,309,0.0,0.0,17,0.00,,,0.00,VWS V13.01,2013-02-15 15:16:00,
2013-02-15 09:21:00,9.5,-26.5,29.15,WNW,293,4.0,4.0,17,0.00,,,0.00,VWS V13.01,2013-02-15 15:21:00,
2013-02-15 09:26:00,9.5,-26.5,29.15,NW,314,2.7,2.7,17,0.00,,,0.00,VWS V13.01,2013-02-15 15:26:00,
2013-02-15 09:31:00,10.2,-25.9,29.15,NW,325,0.0,0.0,17,0.00,,,0.00,VWS V13.01,2013-02-15 15:31:00,
2013-02-15 09:36:00,10.0,-26.1,29.15,WNW,299,2.2,2.7,17,0.00,,,0.00,VWS V13.01,2013-02-15 15:36:00,
2013-02-15 09:41:00,10.2,-25.9,29.15,NW,325,0.0,4.0,17,0.00,,,0.00,VWS V13.01,2013-02-15 15:41:00,
2013-02-15 09:46:00,11.7,-24.7,29.15,West,273,2.2,3.6,17,0.00,,,0.00,VWS V13.01,2013-02-15 15:46:00,
2013-02-15 09:51:00,12.0,-24.4,29.15,NW,306,2.2,2.7,17,0.00,,,0.00,VWS V13.01,2013-02-15 15:51:00,
2013-02-15 09:56:00,14.7,-23.3,29.15,WNW,286,0.0,0.0,16,0.00,,,0.00,VWS V13.01,2013-02-15 15:56:00,
2013-02-15 10:01:00,12.9,-24.8,29.15,NW,318,3.6,4.0,16,0.00,,,0.00,VWS V13.01,2013-02-15 16:01:00,
2013-02-15 10:06:00,15.8,-22.4,29.15,WSW,244,3.1,3.1,16,0.00,,,0.00,VWS V13.01,2013-02-15 16:06:00,
2013-02-15 10:11:00,14.7,-20.0,29.15,WNW,299,4.9,4.9,19,0.00,,,0.00,VWS V13.01,2013-02-15 16:11:00,
2013-02-15 10:16:00,15.8,-19.1,29.15,WNW,288,6.3,6.3,19,0.00,,,0.00,VWS V13.01,2013-02-15 16:16:00,
2013-02-15 10:21:00,16.3,-22.0,29.15,WSW,256,4.9,4.9,16,0.00,,,0.00,VWS V13.01,2013-02-15 16:21:00,
2013-02-15 10:26:00,15.1,-23.0,29.15,NW,321,4.0,4.0,16,0.00,,,0.00,VWS V13.01,2013-02-15 16:26:00,
2013-02-15 10:31:00,16.7,-21.7,29.15,NW,307,2.7,3.6,16,0.00,,,0.00,VWS V13.01,2013-02-15 16:31:00,
2013-02-15 10:36:00,17.2,-19.0,29.15,West,281,3.1,4.9,18,0.00,,,0.00,VWS V13.01,2013-02-15 16:36:00,
2013-02-15 10:41:00,19.2,-17.3,29.15,SSW,212,5.4,5.4,18,0.00,,,0.00,VWS V13.01,2013-02-15 16:41:00,
2013-02-15 10:46:00,17.1,-19.1,29.15,NNW,328,4.0,5.4,18,0.00,,,0.00,VWS V13.01,2013-02-15 16:46:00,
2013-02-15 10:51:00,17.4,-18.8,29.15,WNW,285,4.0,4.0,18,0.00,,,0.00,VWS V13.01,2013-02-15 16:51:00,
2013-02-15 10:56:00,16.7,-19.4,29.15,West,274,2.7,6.3,18,0.00,,,0.00,VWS V13.01,2013-02-15 16:56:00,
2013-02-15 11:01:00,16.7,-19.4,29.15,WNW,299,4.0,5.8,18,0.00,,,0.00,VWS V13.01,2013-02-15 17:01:00,
2013-02-15 11:06:00,18.1,-18.2,29.15,West,275,5.4,5.4,18,0.00,,,0.00,VWS V13.01,2013-02-15 17:06:00,
2013-02-15 11:11:00,20.5,-17.4,29.15,WNW,301,2.7,3.6,17,0.00,,,0.00,VWS V13.01,2013-02-15 17:11:00,
2013-02-15 11:16:00,19.8,-18.0,29.15,West,279,2.7,6.3,17,0.00,,,0.00,VWS V13.01,2013-02-15 17:16:00,
2013-02-15 11:21:00,18.3,-18.1,29.15,NNW,327,2.7,6.3,18,0.00,,,0.00,VWS V13.01,2013-02-15 17:21:00,
2013-02-15 11:26:00,19.6,-18.1,29.15,WSW,255,3.1,3.6,17,0.00,,,0.00,VWS V13.01,2013-02-15 17:26:00,
2013-02-15 11:31:00,18.7,-17.8,29.15,NW,323,4.9,6.3,18,0.00,,,0.00,VWS V13.01,2013-02-15 17:31:00,
2013-02-15 11:36:00,19.6,-18.1,29.15,NW,311,4.0,4.9,17,0.00,,,0.00,VWS V13.01,2013-02-15 17:36:00,
2013-02-15 11:41:00,21.0,-16.9,29.15,NW,325,0.0,4.0,17,0.00,,,0.00,VWS V13.01,2013-02-15 17:41:00,
2013-02-15 11:46:00,20.5,-17.4,29.15,NW,312,3.1,4.0,17,0.00,,,0.00,VWS V13.01,2013-02-15 17:46:00,
2013-02-15 11:51:00,21.2,-16.8,29.15,NW,308,2.7,3.6,17,0.00,,,0.00,VWS V13.01,2013-02-15 17:51:00,
2013-02-15 11:56:00,23.0,-15.3,29.12,North,0,0.0,0.0,17,0.00,,,0.00,VWS V13.01,2013-02-15 17:56:00,
2013-02-15 12:01:00,21.6,-16.5,29.12,NW,316,4.9,5.4,17,0.00,,,0.00,VWS V13.01,2013-02-15 18:01:00,
2013-02-15 12:06:00,21.2,-16.8,29.12,West,276,5.4,5.8,17,0.00,,,0.00,VWS V13.01,2013-02-15 18:06:00,
2013-02-15 12:11:00,21.0,-16.9,29.12,WNW,289,4.9,5.4,17,0.00,,,0.00,VWS V13.01,2013-02-15 18:11:00,
2013-02-15 12:16:00,21.4,-16.6,29.12,NNW,327,3.1,3.6,17,0.00,,,0.00,VWS V13.01,2013-02-15 18:16:00,
2013-02-15 12:21:00,21.4,-16.6,29.12,West,263,2.7,7.6,17,0.00,,,0.00,VWS V13.01,2013-02-15 18:21:00,
2013-02-15 12:26:00,20.1,-17.7,29.12,West,281,5.8,7.6,17,0.00,,,0.00,VWS V13.01,2013-02-15 18:26:00,
2013-02-15 12:31:00,20.5,-17.4,29.12,NW,311,4.9,6.3,17,0.00,,,0.00,VWS V13.01,2013-02-15 18:31:00,
2013-02-15 12:36:00,21.6,-16.5,29.12,North,357,4.9,5.8,17,0.00,,,0.00,VWS V13.01,2013-02-15 18:36:00,
2013-02-15 12:41:00,21.2,-16.8,29.12,NNW,335,4.9,4.9,17,0.00,,,0.00,VWS V13.01,2013-02-15 18:41:00,
2013-02-15 12:46:00,22.3,-15.9,29.12,NW,308,2.2,4.0,17,0.00,,,0.00,VWS V13.01,2013-02-15 18:46:00,
2013-02-15 12:51:00,22.8,-15.4,29.12,WNW,293,4.0,4.9,17,0.00,,,0.00,VWS V13.01,2013-02-15 18:51:00,
2013-02-15 12:56:00,22.8,-15.4,29.12,WSW,242,3.1,3.1,17,0.00,,,0.00,VWS V13.01,2013-02-15 18:56:00,
2013-02-15 13:01:00,22.1,-16.0,29.12,NNW,330,4.0,5.4,17,0.00,,,0.00,VWS V13.01,2013-02-15 19:01:00,
2013-02-15 13:06:00,23.4,-15.0,29.12,West,262,3.6,4.0,17,0.00,,,0.00,VWS V13.01,2013-02-15 19:06:00,
2013-02-15 13:11:00,22.5,-15.8,29.12,NW,315,4.0,4.0,17,0.00,,,0.00,VWS V13.01,2013-02-15 19:11:00,
2013-02-15 13:16:00,21.7,-16.4,29.12,WNW,289,3.6,5.4,17,0.00,,,0.00,VWS V13.01,2013-02-15 19:16:00,
2013-02-15 13:21:00,23.0,-15.3,29.12,NW,316,4.9,4.9,17,0.00,,,0.00,VWS V13.01,2013-02-15 19:21:00,
2013-02-15 13:26:00,22.8,-15.4,29.12,NW,323,3.1,3.6,17,0.00,,,0.00,VWS V13.01,2013-02-15 19:26:00,
2013-02-15 13:31:00,21.9,-16.2,29.12,NNW,331,4.0,4.0,17,0.00,,,0.00,VWS V13.01,2013-02-15 19:31:00,
2013-02-15 13:36:00,21.9,-16.2,29.12,WNW,284,5.4,5.4,17,0.00,,,0.00,VWS V13.01,2013-02-15 19:36:00,
2013-02-15 13:41:00,20.1,-17.7,29.12,WNW,301,2.2,7.6,17,0.00,,,0.00,VWS V13.01,2013-02-15 19:41:00,
2013-02-15 13:46:00,20.3,-17.5,29.12,NW,311,5.4,5.4,17,0.00,,,0.00,VWS V13.01,2013-02-15 19:46:00,
2013-02-15 13:51:00,19.9,-17.8,29.12,WNW,285,4.9,4.9,17,0.00,,,0.00,VWS V13.01,2013-02-15 19:51:00,
2013-02-15 13:56:00,19.8,-18.0,29.12,West,281,3.1,5.4,17,0.00,,,0.00,VWS V13.01,2013-02-15 19:56:00,
2013-02-15 14:01:00,20.1,-17.7,29.12,WSW,238,0.0,4.0,17,0.00,,,0.00,VWS V13.01,2013-02-15 20:01:00,
2013-02-15 14:06:00,20.3,-17.5,29.12,NNW,330,2.7,3.1,17,0.00,,,0.00,VWS V13.01,2013-02-15 20:06:00,
2013-02-15 14:11:00,20.5,-17.4,29.09,WNW,292,4.0,5.4,17,0.00,,,0.00,VWS V13.01,2013-02-15 20:11:00,
2013-02-15 14:16:00,20.5,-17.4,29.09,NW,324,3.6,3.6,17,0.00,,,0.00,VWS V13.01,2013-02-15 20:16:00,
2013-02-15 14:21:00,20.1,-17.7,29.09,NW,315,2.7,5.8,17,0.00,,,0.00,VWS V13.01,2013-02-15 20:21:00,
2013-02-15 14:26:00,20.7,-17.2,29.12,NNE,18,3.1,4.0,17,0.00,,,0.00,VWS V13.01,2013-02-15 20:26:00,
2013-02-15 14:31:00,21.2,-16.8,29.12,West,266,2.7,4.9,17,0.00,,,0.00,VWS V13.01,2013-02-15 20:31:00,
2013-02-15 14:36:00,21.9,-16.2,29.12,WNW,283,2.7,5.4,17,0.00,,,0.00,VWS V13.01,2013-02-15 20:36:00,
2013-02-15 14:41:00,22.6,-15.6,29.12,West,280,2.7,3.6,17,0.00,,,0.00,VWS V13.01,2013-02-15 20:41:00,
2013-02-15 14:46:00,24.3,-14.3,29.12,NW,304,0.0,4.0,17,0.00,,,0.00,VWS V13.01,2013-02-15 20:46:00,
2013-02-15 14:51:00,24.4,-14.1,29.12,NW,314,0.0,0.0,17,0.00,,,0.00,VWS V13.01,2013-02-15 20:51:00,
2013-02-15 14:56:00,23.4,-15.0,29.09,WNW,285,4.0,4.0,17,0.00,,,0.00,VWS V13.01,2013-02-15 20:56:00,
2013-02-15 15:01:00,24.4,-14.1,29.09,NW,307,0.0,5.4,17,0.00,,,0.00,VWS V13.01,2013-02-15 21:01:00,
2013-02-15 15:06:00,23.5,-14.9,29.09,West,277,4.0,5.8,17,0.00,,,0.00,VWS V13.01,2013-02-15 21:06:00,
2013-02-15 15:11:00,26.2,-13.8,29.12,NNW,328,2.2,3.6,16,0.00,,,0.00,VWS V13.01,2013-02-15 21:11:00,
2013-02-15 15:16:00,23.5,-14.9,29.12,WNW,289,6.3,6.3,17,0.00,,,0.00,VWS V13.01,2013-02-15 21:16:00,
2013-02-15 15:21:00,25.0,-14.9,29.12,NW,324,4.0,5.4,16,0.00,,,0.00,VWS V13.01,2013-02-15 21:21:00,
2013-02-15 15:26:00,26.6,-13.5,29.12,NW,307,2.2,2.7,16,0.00,,,0.00,VWS V13.01,2013-02-15 21:26:00,
2013-02-15 15:31:00,26.1,-14.0,29.12,West,273,4.0,4.0,16,0.00,,,0.00,VWS V13.01,2013-02-15 21:31:00,
2013-02-15 15:36:00,23.9,-14.6,29.12,NW,311,3.6,4.0,17,0.00,,,0.00,VWS V13.01,2013-02-15 21:36:00,
2013-02-15 15:41:00,25.5,-14.4,29.12,NW,326,5.4,5.8,16,0.00,,,0.00,VWS V13.01,2013-02-15 21:41:00,
2013-02-15 15:46:00,24.8,-13.8,29.12,WNW,290,3.6,3.6,17,0.00,,,0.00,VWS V13.01,2013-02-15 21:46:00,
2013-02-15 15:51:00,23.5,-14.9,29.12,WNW,303,0.0,4.0,17,0.00,,,0.00,VWS V13.01,2013-02-15 21:51:00,
2013-02-15 15:56:00,23.5,-14.9,29.12,NW,326,4.0,5.4,17,0.00,,,0.00,VWS V13.01,2013-02-15 21:56:00,
2013-02-15 16:01:00,22.8,-15.4,29.12,WNW,288,5.4,5.4,17,0.00,,,0.00,VWS V13.01,2013-02-15 22:01:00,
2013-02-15 16:06:00,23.0,-15.3,29.12,West,276,4.5,4.5,17,0.00,,,0.00,VWS V13.01,2013-02-15 22:06:00,
2013-02-15 16:11:00,22.6,-15.6,29.12,WNW,303,5.4,5.4,17,0.00,,,0.00,VWS V13.01,2013-02-15 22:11:00,
2013-02-15 16:16:00,23.4,-15.0,29.12,NW,317,3.1,3.6,17,0.00,,,0.00,VWS V13.01,2013-02-15 22:16:00,
2013-02-15 16:21:00,22.1,-16.0,29.12,WNW,283,0.0,0.0,17,0.00,,,0.00,VWS V13.01,2013-02-15 22:21:00,
2013-02-15 16:26:00,21.7,-18.8,29.12,NNW,336,0.0,2.2,15,0.00,,,0.00,VWS V13.01,2013-02-15 22:26:00,
2013-02-15 16:31:00,20.8,-19.5,29.12,NW,323,4.0,4.0,15,0.00,,,0.00,VWS V13.01,2013-02-15 22:31:00,
2013-02-15 16:36:00,20.1,-20.1,29.12,WNW,299,2.7,4.0,15,0.00,,,0.00,VWS V13.01,2013-02-15 22:36:00,
2013-02-15 16:41:00,18.7,-21.3,29.12,WSW,238,0.0,0.0,15,0.00,,,0.00,VWS V13.01,2013-02-15 22:41:00,
2013-02-15 16:46:00,17.1,-21.4,29.12,NW,307,0.0,0.0,16,0.00,,,0.00,VWS V13.01,2013-02-15 22:46:00,
2013-02-15 16:51:00,15.8,-22.4,29.12,WNW,293,2.2,4.0,16,0.00,,,0.00,VWS V13.01,2013-02-15 22:51:00,
2013-02-15 16:56:00,14.9,-23.2,29.12,NW,306,0.0,0.0,16,0.00,,,0.00,VWS V13.01,2013-02-15 22:56:00,
2013-02-15 17:01:00,14.2,-23.8,29.12,West,279,3.1,5.8,16,0.00,,,0.00,VWS V13.01,2013-02-15 23:01:00,
2013-02-15 17:06:00,13.3,-24.5,29.12,WSW,253,0.0,0.0,16,0.00,,,0.00,VWS V13.01,2013-02-15 23:06:00,
2013-02-15 17:11:00,12.6,-25.1,29.12,NW,323,0.0,4.9,16,0.00,,,0.00,VWS V13.01,2013-02-15 23:11:00,
2013-02-15 17:16:00,11.7,-25.9,29.12,WNW,282,2.2,2.7,16,0.00,,,0.00,VWS V13.01,2013-02-15 23:16:00,
2013-02-15 17:21:00,11.1,-26.3,29.12,WNW,301,0.0,3.1,16,0.00,,,0.00,VWS V13.01,2013-02-15 23:21:00,
2013-02-15 17:26:00,10.4,-26.9,29.12,WNW,290,3.1,3.1,16,0.00,,,0.00,VWS V13.01,2013-02-15 23:26:00,
2013-02-15 17:31:00,10.0,-27.2,29.12,NW,318,2.2,2.2,16,0.00,,,0.00,VWS V13.01,2013-02-15 23:31:00,
2013-02-15 17:36:00,9.5,-27.6,29.12,NW,318,2.2,3.1,16,0.00,,,0.00,VWS V13.01,2013-02-15 23:36:00,
2013-02-15 17:41:00,8.6,-28.4,29.12,WNW,292,0.0,0.0,16,0.00,,,0.00,VWS V13.01,2013-02-15 23:41:00,
2013-02-15 17:46:00,7.7,-29.1,29.12,WSW,250,0.0,2.2,16,0.00,,,0.00,VWS V13.01,2013-02-15 23:46:00,
2013-02-15 17:51:00,7.5,-29.3,29.12,WNW,283,0.0,0.0,16,0.00,,,0.00,VWS V13.01,2013-02-15 23:51:00,
2013-02-15 17:56:00,7.5,-29.3,29.12,WNW,298,0.0,0.0,16,0.00,,,0.00,VWS V13.01,2013-02-15 23:56:00,
2013-02-15 18:01:00,6.8,-29.9,29.12,WNW,287,0.0,0.0,16,0.00,,,0.00,VWS V13.01,2013-02-16 00:01:00,
2013-02-15 18:06:00,6.4,-30.2,29.12,WSW,248,0.0,0.0,16,0.00,,,0.00,VWS V13.01,2013-02-16 00:06:00,
2013-02-15 18:11:00,5.9,-30.6,29.12,WSW,248,0.0,0.0,16,0.00,,,0.00,VWS V13.01,2013-02-16 00:11:00,
2013-02-15 18:16:00,5.2,-31.2,29.12,WSW,248,0.0,0.0,16,0.00,,,0.00,VWS V13.01,2013-02-16 00:16:00,
2013-02-15 18:21:00,5.5,-30.9,29.12,WNW,301,0.0,0.0,16,0.00,,,0.00,VWS V13.01,2013-02-16 00:21:00,
2013-02-15 18:26:00,5.4,-31.1,29.12,WNW,287,0.0,0.0,16,0.00,,,0.00,VWS V13.01,2013-02-16 00:26:00,
2013-02-15 18:31:00,5.0,-31.4,29.12,WNW,287,0.0,0.0,16,0.00,,,0.00,VWS V13.01,2013-02-16 00:31:00,
2013-02-15 18:36:00,4.8,-31.5,29.12,WNW,300,0.0,0.0,16,0.00,,,0.00,VWS V13.01,2013-02-16 00:36:00,
2013-02-15 18:41:00,4.6,-31.7,29.12,WNW,300,0.0,0.0,16,0.00,,,0.00,VWS V13.01,2013-02-16 00:41:00,
2013-02-15 18:46:00,4.6,-31.7,29.12,WNW,300,0.0,0.0,16,0.00,,,0.00,VWS V13.01,2013-02-16 00:46:00,
2013-02-15 18:51:00,4.5,-31.8,29.12,WNW,300,0.0,0.0,16,0.00,,,0.00,VWS V13.01,2013-02-16 00:51:00,
2013-02-15 18:56:00,4.5,-31.8,29.12,WNW,290,0.0,0.0,16,0.00,,,0.00,VWS V13.01,2013-02-16 00:56:00,
2013-02-15 19:01:00,4.1,-32.1,29.12,WNW,290,0.0,0.0,16,0.00,,,0.00,VWS V13.01,2013-02-16 01:01:00,
2013-02-15 19:06:00,3.9,-32.3,29.12,West,266,0.0,0.0,16,0.00,,,0.00,VWS V13.01,2013-02-16 01:06:00,
2013-02-15 19:11:00,3.6,-32.6,29.12,West,266,0.0,0.0,16,0.00,,,0.00,VWS V13.01,2013-02-16 01:11:00,
2013-02-15 19:16:00,3.2,-32.8,29.12,West,268,0.0,0.0,16,0.00,,,0.00,VWS V13.01,2013-02-16 01:16:00,
2013-02-15 19:21:00,3.4,-32.7,29.12,West,268,0.0,0.0,16,0.00,,,0.00,VWS V13.01,2013-02-16 01:21:00,
2013-02-15 19:26:00,3.7,-32.4,29.12,West,268,0.0,0.0,16,0.00,,,0.00,VWS V13.01,2013-02-16 01:26:00,
2013-02-15 19:31:00,3.6,-32.6,29.12,West,270,0.0,0.0,16,0.00,,,0.00,VWS V13.01,2013-02-16 01:31:00,
2013-02-15 19:36:00,2.8,-33.2,29.12,West,270,0.0,0.0,16,0.00,,,0.00,VWS V13.01,2013-02-16 01:36:00,
2013-02-15 19:41:00,2.8,-33.2,29.12,West,266,0.0,0.0,16,0.00,,,0.00,VWS V13.01,2013-02-16 01:41:00,
2013-02-15 19:46:00,2.7,-33.3,29.12,West,267,0.0,0.0,16,0.00,,,0.00,VWS V13.01,2013-02-16 01:46:00,
2013-02-15 19:51:00,2.8,-33.2,29.12,WSW,256,0.0,0.0,16,0.00,,,0.00,VWS V13.01,2013-02-16 01:51:00,
2013-02-15 19:56:00,2.8,-33.2,29.12,West,274,0.0,0.0,16,0.00,,,0.00,VWS V13.01,2013-02-16 01:56:00,
2013-02-15 20:01:00,2.8,-33.2,29.12,West,272,0.0,0.0,16,0.00,,,0.00,VWS V13.01,2013-02-16 02:01:00,
2013-02-15 20:06:00,2.8,-33.2,29.12,WNW,282,0.0,0.0,16,0.00,,,0.00,VWS V13.01,2013-02-16 02:06:00,
2013-02-15 20:11:00,2.8,-33.2,29.12,WSW,254,0.0,0.0,16,0.00,,,0.00,VWS V13.01,2013-02-16 02:11:00,
2013-02-15 20:16:00,3.0,-33.0,29.12,West,274,4.0,4.0,16,0.00,,,0.00,VWS V13.01,2013-02-16 02:16:00,
2013-02-15 20:21:00,2.8,-33.2,29.12,West,275,0.0,0.0,16,0.00,,,0.00,VWS V13.01,2013-02-16 02:21:00,
2013-02-15 20:26:00,3.2,-32.8,29.12,NW,310,0.0,0.0,16,0.00,,,0.00,VWS V13.01,2013-02-16 02:26:00,
2013-02-15 20:31:00,2.8,-33.2,29.12,NW,305,0.0,0.0,16,0.00,,,0.00,VWS V13.01,2013-02-16 02:31:00,
2013-02-15 20:36:00,2.3,-33.6,29.12,NW,308,0.0,0.0,16,0.00,,,0.00,VWS V13.01,2013-02-16 02:36:00,
2013-02-15 20:41:00,1.8,-34.0,29.12,NW,306,2.7,2.7,16,0.00,,,0.00,VWS V13.01,2013-02-16 02:41:00,
2013-02-15 20:46:00,1.6,-34.2,29.12,WNW,284,0.0,0.0,16,0.00,,,0.00,VWS V13.01,2013-02-16 02:46:00,
2013-02-15 20:51:00,1.6,-34.2,29.12,WNW,300,0.0,0.0,16,0.00,,,0.00,VWS V13.01,2013-02-16 02:51:00,
2013-02-15 20:56:00,1.6,-34.2,29.12,WNW,299,0.0,0.0,16,0.00,,,0.00,VWS V13.01,2013-02-16 02:56:00,
2013-02-15 21:01:00,1.6,-34.2,29.12,WNW,295,0.0,0.0,16,0.00,,,0.00,VWS V13.01,2013-02-16 03:01:00,
2013-02-15 21:06:00,1.9,-33.9,29.12,WNW,283,0.0,0.0,16,0.00,,,0.00,VWS V13.01,2013-02-16 03:06:00,
2013-02-15 21:11:00,1.9,-33.9,29.12,WNW,298,0.0,0.0,16,0.00,,,0.00,VWS V13.01,2013-02-16 03:11:00,
2013-02-15 21:16:00,1.9,-33.9,29.12,WNW,294,0.0,0.0,16,0.00,,,0.00,VWS V13.01,2013-02-16 03:16:00,
2013-02-15 21:21:00,1.6,-34.2,29.12,WNW,286,3.1,3.1,16,0.00,,,0.00,VWS V13.01,2013-02-16 03:21:00,
2013-02-15 21:26:00,1.6,-34.2,29.12,WNW,287,0.0,0.0,16,0.00,,,0.00,VWS V13.01,2013-02-16 03:26:00,
2013-02-15 21:31:00,1.2,-34.5,29.12,WNW,284,2.2,4.0,16,0.00,,,0.00,VWS V13.01,2013-02-16 03:31:00,
2013-02-15 21:36:00,0.7,-35.0,29.12,West,266,0.0,0.0,16,0.00,,,0.00,VWS V13.01,2013-02-16 03:36:00,
2013-02-15 21:41:00,0.7,-35.0,29.12,WSW,256,3.1,3.1,16,0.00,,,0.00,VWS V13.01,2013-02-16 03:41:00,
2013-02-15 21:46:00,0.7,-35.0,29.12,NW,308,0.0,3.6,16,0.00,,,0.00,VWS V13.01,2013-02-16 03:46:00,
2013-02-15 21:51:00,0.5,-35.1,29.12,West,279,0.0,2.2,16,0.00,,,0.00,VWS V13.01,2013-02-16 03:51:00,
2013-02-15 21:56:00,0.1,-35.4,29.09,West,268,0.0,2.2,16,0.00,,,0.00,VWS V13.01,2013-02-16 03:56:00,
2013-02-15 22:01:00,0.0,-35.5,29.09,West,281,0.0,0.0,16,0.00,,,0.00,VWS V13.01,2013-02-16 04:01:00,
2013-02-15 22:06:00,-0.4,-35.8,29.09,WNW,292,0.0,0.0,16,0.00,,,0.00,VWS V13.01,2013-02-16 04:06:00,
2013-02-15 22:11:00,-0.9,-36.3,29.12,WNW,292,0.0,0.0,16,0.00,,,0.00,VWS V13.01,2013-02-16 04:11:00,
2013-02-15 22:16:00,-1.3,-36.6,29.12,WNW,292,0.0,0.0,16,0.00,,,0.00,VWS V13.01,2013-02-16 04:16:00,
2013-02-15 22:21:00,-1.3,-36.6,29.12,WNW,292,0.0,0.0,16,0.00,,,0.00,VWS V13.01,2013-02-16 04:21:00,
2013-02-15 22:26:00,-1.5,-36.7,29.12,WNW,292,0.0,0.0,16,0.00,,,0.00,VWS V13.01,2013-02-16 04:26:00,
2013-02-15 22:31:00,-1.1,-36.4,29.12,WNW,292,0.0,0.0,16,0.00,,,0.00,VWS V13.01,2013-02-16 04:31:00,
2013-02-15 22:36:00,-1.3,-36.6,29.12,WNW,292,0.0,0.0,16,0.00,,,0.00,VWS V13.01,2013-02-16 04:36:00,
2013-02-15 22:41:00,-1.3,-36.6,29.09,WNW,288,0.0,0.0,16,0.00,,,0.00,VWS V13.01,2013-02-16 04:41:00,
2013-02-15 22:46:00,-1.3,-36.6,29.09,West,276,0.0,0.0,16,0.00,,,0.00,VWS V13.01,2013-02-16 04:46:00,
2013-02-15 22:51:00,-1.1,-36.4,29.09,West,275,0.0,0.0,16,0.00,,,0.00,VWS V13.01,2013-02-16 04:51:00,
2013-02-15 22:56:00,-1.1,-36.4,29.09,West,275,0.0,0.0,16,0.00,,,0.00,VWS V13.01,2013-02-16 04:56:00,
2013-02-15 23:00:00,-1.3,-36.6,29.09,West,275,0.0,0.0,16,0.00,,,0.00,VWS V13.01,2013-02-16 05:00:00,
2013-02-15 23:05:00,-1.8,-37.0,29.09,West,275,0.0,0.0,16,0.00,,,0.00,VWS V13.01,2013-02-16 05:05:00,
2013-02-15 23:10:00,-2.4,-37.5,29.09,West,275,0.0,0.0,16,0.00,,,0.00,VWS V13.01,2013-02-16 05:10:00,
2013-02-15 23:15:00,-2.6,-37.6,29.09,West,275,0.0,0.0,16,0.00,,,0.00,VWS V13.01,2013-02-16 05:15:00,
2013-02-15 23:20:00,-2.6,-37.6,29.09,West,275,0.0,0.0,16,0.00,,,0.00,VWS V13.01,2013-02-16 05:20:00,
2013-02-15 23:23:00,-2.7,-37.8,29.09,West,275,0.0,0.0,16,0.00,,,0.00,VWS V13.01,2013-02-16 05:23:00,
2013-02-15 23:28:00,-3.3,-38.2,29.09,West,275,0.0,0.0,16,0.00,,,0.00,VWS V13.01,2013-02-16 05:28:00,
2013-02-15 23:33:00,-3.6,-38.5,29.09,West,275,0.0,0.0,16,0.00,,,0.00,VWS V13.01,2013-02-16 05:33:00,
2013-02-15 23:38:00,-3.8,-38.7,29.09,West,275,0.0,0.0,16,0.00,,,0.00,VWS V13.01,2013-02-16 05:38:00,
2013-02-15 23:43:00,-3.8,-38.7,29.09,West,275,0.0,0.0,16,0.00,,,0.00,VWS V13.01,2013-02-16 05:43:00,
2013-02-15 23:48:00,-4.2,-39.0,29.09,West,275,0.0,0.0,16,0.00,,,0.00,VWS V13.01,2013-02-16 05:48:00,
2013-02-15 23:53:00,-4.2,-39.0,29.09,West,275,0.0,0.0,16,0.00,,,0.00,VWS V13.01,2013-02-16 05:53:00,
2013-02-15 23:58:00,-4.2,-39.0,29.09,West,275,0.0,0.0,16,0.00,,,0.00,VWS V13.01,2013-02-16 05:58:00,